Year,Month,Day,Hour,Minute,Value (Times are PST for temperature in C)
2010,07,17,00,00,11.70
2010,07,17,00,01,11.70
2010,07,17,00,02,11.70
2010,07,17,00,03,11.80
2010,07,17,00,04,11.80
2010,07,17,00,05,11.80
2010,07,17,00,06,11.80
2010,07,17,00,07,11.80
2010,07,17,00,08,11.80
2010,07,17,00,09,11.80
2010,07,17,00,10,11.80
2010,07,17,00,11,11.80
2010,07,17,00,12,11.80
2010,07,17,00,13,11.80
2010,07,17,00,14,11.80
2010,07,17,00,15,11.80
2010,07,17,00,16,11.80
2010,07,17,00,17,11.80
2010,07,17,00,18,11.80
2010,07,17,00,19,11.80
2010,07,17,00,20,11.80
2010,07,17,00,21,11.80
2010,07,17,00,22,11.80
2010,07,17,00,23,11.80
2010,07,17,00,24,11.80
2010,07,17,00,25,11.70
2010,07,17,00,26,11.70
2010,07,17,00,27,11.70
2010,07,17,00,28,11.70
2010,07,17,00,29,11.70
2010,07,17,00,30,11.60
2010,07,17,00,31,11.60
2010,07,17,00,32,11.60
2010,07,17,00,33,11.60
2010,07,17,00,34,11.60
2010,07,17,00,35,11.60
2010,07,17,00,36,11.60
2010,07,17,00,37,11.60
2010,07,17,00,38,11.40
2010,07,17,00,39,11.40
2010,07,17,00,40,11.30
2010,07,17,00,41,11.20
2010,07,17,00,42,11.20
2010,07,17,00,43,11.20
2010,07,17,00,44,11.10
2010,07,17,00,45,11.10
2010,07,17,00,46,11.00
2010,07,17,00,47,10.90
2010,07,17,00,48,10.90
2010,07,17,00,49,10.90
2010,07,17,00,50,10.80
2010,07,17,00,51,10.80
2010,07,17,00,52,10.70
2010,07,17,00,53,10.70
2010,07,17,00,54,10.70
2010,07,17,00,55,10.60
2010,07,17,00,56,10.60
2010,07,17,00,57,10.60
2010,07,17,00,58,10.60
2010,07,17,00,59,10.60
2010,07,17,01,00,10.60
2010,07,17,01,01,10.60
2010,07,17,01,02,10.60
2010,07,17,01,03,10.60
2010,07,17,01,04,10.60
2010,07,17,01,05,10.60
2010,07,17,01,06,10.50
2010,07,17,01,07,10.40
2010,07,17,01,08,10.40
2010,07,17,01,09,10.40
2010,07,17,01,10,10.40
2010,07,17,01,11,10.40
2010,07,17,01,12,10.40
2010,07,17,01,13,10.40
2010,07,17,01,14,10.40
2010,07,17,01,15,10.40
2010,07,17,01,16,10.40
2010,07,17,01,17,10.40
2010,07,17,01,18,10.40
2010,07,17,01,19,10.40
2010,07,17,01,20,10.40
2010,07,17,01,21,10.40
2010,07,17,01,22,10.40
2010,07,17,01,23,10.40
2010,07,17,01,24,10.40
2010,07,17,01,25,10.40
2010,07,17,01,26,10.40
2010,07,17,01,27,10.40
2010,07,17,01,28,10.40
2010,07,17,01,29,10.40
2010,07,17,01,30,10.30
2010,07,17,01,31,10.30
2010,07,17,01,32,10.30
2010,07,17,01,33,10.20
2010,07,17,01,34,10.20
2010,07,17,01,35,10.20
2010,07,17,01,36,10.20
2010,07,17,01,37,10.10
2010,07,17,01,38,10.10
2010,07,17,01,39,10.10
2010,07,17,01,40,10.10
2010,07,17,01,41,10.10
2010,07,17,01,42,10.10
2010,07,17,01,43,10.10
2010,07,17,01,44,10.10
2010,07,17,01,45,10.10
2010,07,17,01,46,10.10
2010,07,17,01,47,10.10
2010,07,17,01,48,10.00
2010,07,17,01,49,9.90
2010,07,17,01,50,9.90
2010,07,17,01,51,9.90
2010,07,17,01,52,9.90
2010,07,17,01,53,9.90
2010,07,17,01,54,9.90
2010,07,17,01,55,9.90
2010,07,17,01,56,9.80
2010,07,17,01,57,9.80
2010,07,17,01,58,9.80
2010,07,17,01,59,9.80
2010,07,17,02,00,9.80
2010,07,17,02,01,9.70
2010,07,17,02,02,9.70
2010,07,17,02,03,9.80
2010,07,17,02,04,9.80
2010,07,17,02,05,9.80
2010,07,17,02,06,9.70
2010,07,17,02,07,9.70
2010,07,17,02,08,9.70
2010,07,17,02,09,9.70
2010,07,17,02,10,9.70
2010,07,17,02,11,9.70
2010,07,17,02,12,9.70
2010,07,17,02,13,9.70
2010,07,17,02,14,9.70
2010,07,17,02,15,9.70
2010,07,17,02,16,9.70
2010,07,17,02,17,9.70
2010,07,17,02,18,9.70
2010,07,17,02,19,9.70
2010,07,17,02,20,9.70
2010,07,17,02,21,9.70
2010,07,17,02,22,9.70
2010,07,17,02,23,9.70
2010,07,17,02,24,9.70
2010,07,17,02,25,9.70
2010,07,17,02,26,9.70
2010,07,17,02,27,9.70
2010,07,17,02,28,9.70
2010,07,17,02,29,9.70
2010,07,17,02,30,9.70
2010,07,17,02,31,9.60
2010,07,17,02,32,9.60
2010,07,17,02,33,9.60
2010,07,17,02,34,9.60
2010,07,17,02,35,9.60
2010,07,17,02,36,9.60
2010,07,17,02,37,9.70
2010,07,17,02,38,9.70
2010,07,17,02,39,9.70
2010,07,17,02,40,9.70
2010,07,17,02,41,9.70
2010,07,17,02,42,9.70
2010,07,17,02,43,9.70
2010,07,17,02,44,9.70
2010,07,17,02,45,9.70
2010,07,17,02,46,9.70
2010,07,17,02,47,9.70
2010,07,17,02,48,9.70
2010,07,17,02,49,9.60
2010,07,17,02,50,9.60
2010,07,17,02,51,9.60
2010,07,17,02,52,9.60
2010,07,17,02,53,9.50
2010,07,17,02,54,9.50
2010,07,17,02,55,9.50
2010,07,17,02,56,9.40
2010,07,17,02,57,9.40
2010,07,17,02,58,9.40
2010,07,17,02,59,9.30
2010,07,17,03,00,9.30
2010,07,17,03,01,9.20
2010,07,17,03,02,9.20
2010,07,17,03,03,9.20
2010,07,17,03,04,9.20
2010,07,17,03,05,9.20
2010,07,17,03,06,9.20
2010,07,17,03,07,9.20
2010,07,17,03,08,9.20
2010,07,17,03,09,9.20
2010,07,17,03,10,9.20
2010,07,17,03,11,9.20
2010,07,17,03,12,9.20
2010,07,17,03,13,9.20
2010,07,17,03,14,9.20
2010,07,17,03,15,9.20
2010,07,17,03,16,9.20
2010,07,17,03,17,9.20
2010,07,17,03,18,9.20
2010,07,17,03,19,9.20
2010,07,17,03,20,9.20
2010,07,17,03,21,9.20
2010,07,17,03,22,9.20
2010,07,17,03,23,9.20
2010,07,17,03,24,9.20
2010,07,17,03,25,9.20
2010,07,17,03,26,9.20
2010,07,17,03,27,9.10
2010,07,17,03,28,9.10
2010,07,17,03,29,9.10
2010,07,17,03,30,9.10
2010,07,17,03,31,9.10
2010,07,17,03,32,9.10
2010,07,17,03,33,9.10
2010,07,17,03,34,9.10
2010,07,17,03,35,9.10
2010,07,17,03,36,9.10
2010,07,17,03,37,9.10
2010,07,17,03,38,9.00
2010,07,17,03,39,9.00
2010,07,17,03,40,9.00
2010,07,17,03,41,9.00
2010,07,17,03,42,9.00
2010,07,17,03,43,8.90
2010,07,17,03,44,8.90
2010,07,17,03,45,8.90
2010,07,17,03,46,8.90
2010,07,17,03,47,8.90
2010,07,17,03,48,8.80
2010,07,17,03,49,8.80
2010,07,17,03,50,8.70
2010,07,17,03,51,8.70
2010,07,17,03,52,8.70
2010,07,17,03,53,8.70
2010,07,17,03,54,8.70
2010,07,17,03,55,8.70
2010,07,17,03,56,8.70
2010,07,17,03,57,8.70
2010,07,17,03,58,8.70
2010,07,17,03,59,8.70
2010,07,17,04,00,8.60
2010,07,17,04,01,8.60
2010,07,17,04,02,8.60
2010,07,17,04,03,8.60
2010,07,17,04,04,8.50
2010,07,17,04,05,8.50
2010,07,17,04,06,8.50
2010,07,17,04,07,8.50
2010,07,17,04,08,8.50
2010,07,17,04,09,8.50
2010,07,17,04,10,8.40
2010,07,17,04,11,8.40
2010,07,17,04,12,8.40
2010,07,17,04,13,8.40
2010,07,17,04,14,8.40
2010,07,17,04,15,8.40
2010,07,17,04,16,8.40
2010,07,17,04,17,8.40
2010,07,17,04,18,8.40
2010,07,17,04,19,8.40
2010,07,17,04,20,8.40
2010,07,17,04,21,8.40
2010,07,17,04,22,8.40
2010,07,17,04,23,8.40
2010,07,17,04,24,8.30
2010,07,17,04,25,8.40
2010,07,17,04,26,8.40
2010,07,17,04,27,8.40
2010,07,17,04,28,8.40
2010,07,17,04,29,8.40
2010,07,17,04,30,8.40
2010,07,17,04,31,8.40
2010,07,17,04,32,8.40
2010,07,17,04,33,8.40
2010,07,17,04,34,8.40
2010,07,17,04,35,8.30
2010,07,17,04,36,8.30
2010,07,17,04,37,8.30
2010,07,17,04,38,8.30
2010,07,17,04,39,8.30
2010,07,17,04,40,8.30
2010,07,17,04,41,8.20
2010,07,17,04,42,8.20
2010,07,17,04,43,8.20
2010,07,17,04,44,8.20
2010,07,17,04,45,8.20
2010,07,17,04,46,8.20
2010,07,17,04,47,8.20
2010,07,17,04,48,8.20
2010,07,17,04,49,8.20
2010,07,17,04,50,8.20
2010,07,17,04,51,8.20
2010,07,17,04,52,8.20
2010,07,17,04,53,8.20
2010,07,17,04,54,8.20
2010,07,17,04,55,8.20
2010,07,17,04,56,8.20
2010,07,17,04,57,8.20
2010,07,17,04,58,8.20
2010,07,17,04,59,8.20
2010,07,17,05,00,8.20
2010,07,17,05,01,8.20
2010,07,17,05,02,8.20
2010,07,17,05,03,8.20
2010,07,17,05,04,8.20
2010,07,17,05,05,8.20
2010,07,17,05,06,8.20
2010,07,17,05,07,8.20
2010,07,17,05,08,8.20
2010,07,17,05,09,8.20
2010,07,17,05,10,8.20
2010,07,17,05,11,8.20
2010,07,17,05,12,8.20
2010,07,17,05,13,8.20
2010,07,17,05,14,8.20
2010,07,17,05,15,8.20
2010,07,17,05,16,8.20
2010,07,17,05,17,8.20
2010,07,17,05,18,8.20
2010,07,17,05,19,8.20
2010,07,17,05,20,8.30
2010,07,17,05,21,8.30
2010,07,17,05,22,8.30
2010,07,17,05,23,8.30
2010,07,17,05,24,8.30
2010,07,17,05,25,8.30
2010,07,17,05,26,8.40
2010,07,17,05,27,8.40
2010,07,17,05,28,8.40
2010,07,17,05,29,8.50
2010,07,17,05,30,8.50
2010,07,17,05,31,8.50
2010,07,17,05,32,8.50
2010,07,17,05,33,8.50
2010,07,17,05,34,8.60
2010,07,17,05,35,8.60
2010,07,17,05,36,8.60
2010,07,17,05,37,8.60
2010,07,17,05,38,8.60
2010,07,17,05,39,8.60
2010,07,17,05,40,8.60
2010,07,17,05,41,8.60
2010,07,17,05,42,8.60
2010,07,17,05,43,8.60
2010,07,17,05,44,8.60
2010,07,17,05,45,8.50
2010,07,17,05,46,8.50
2010,07,17,05,47,8.50
2010,07,17,05,48,8.50
2010,07,17,05,49,8.50
2010,07,17,05,50,8.50
2010,07,17,05,51,8.50
2010,07,17,05,52,8.50
2010,07,17,05,53,8.50
2010,07,17,05,54,8.50
2010,07,17,05,55,8.50
2010,07,17,05,56,8.60
2010,07,17,05,57,8.70
2010,07,17,05,58,8.70
2010,07,17,05,59,8.70
2010,07,17,06,00,8.70
2010,07,17,06,01,8.80
2010,07,17,06,02,8.80
2010,07,17,06,03,8.90
2010,07,17,06,04,8.90
2010,07,17,06,05,8.90
2010,07,17,06,06,8.90
2010,07,17,06,07,9.00
2010,07,17,06,08,9.00
2010,07,17,06,09,9.00
2010,07,17,06,10,9.00
2010,07,17,06,11,9.00
2010,07,17,06,12,9.00
2010,07,17,06,13,9.00
2010,07,17,06,14,9.00
2010,07,17,06,15,9.00
2010,07,17,06,16,9.00
2010,07,17,06,17,9.00
2010,07,17,06,18,9.10
2010,07,17,06,19,9.10
2010,07,17,06,20,9.10
2010,07,17,06,21,9.10
2010,07,17,06,22,9.10
2010,07,17,06,23,9.10
2010,07,17,06,24,9.10
2010,07,17,06,25,9.10
2010,07,17,06,26,9.20
2010,07,17,06,27,9.20
2010,07,17,06,28,9.20
2010,07,17,06,29,9.20
2010,07,17,06,30,9.20
2010,07,17,06,31,9.20
2010,07,17,06,32,9.20
2010,07,17,06,33,9.20
2010,07,17,06,34,9.20
2010,07,17,06,35,9.20
2010,07,17,06,36,9.20
2010,07,17,06,37,9.20
2010,07,17,06,38,9.20
2010,07,17,06,39,9.20
2010,07,17,06,40,9.20
2010,07,17,06,41,9.20
2010,07,17,06,42,9.20
2010,07,17,06,43,9.20
2010,07,17,06,44,9.20
2010,07,17,06,45,9.20
2010,07,17,06,46,9.20
2010,07,17,06,47,9.20
2010,07,17,06,48,9.20
2010,07,17,06,49,9.30
2010,07,17,06,50,9.30
2010,07,17,06,51,9.30
2010,07,17,06,52,9.30
2010,07,17,06,53,9.30
2010,07,17,06,54,9.30
2010,07,17,06,55,9.30
2010,07,17,06,56,9.30
2010,07,17,06,57,9.30
2010,07,17,06,58,9.30
2010,07,17,06,59,9.30
2010,07,17,07,00,9.30
2010,07,17,07,01,9.30
2010,07,17,07,02,9.30
2010,07,17,07,03,9.30
2010,07,17,07,04,9.30
2010,07,17,07,05,9.30
2010,07,17,07,06,9.30
2010,07,17,07,07,9.30
2010,07,17,07,08,9.30
2010,07,17,07,09,9.30
2010,07,17,07,10,9.40
2010,07,17,07,11,9.40
2010,07,17,07,12,9.40
2010,07,17,07,13,9.40
2010,07,17,07,14,9.40
2010,07,17,07,15,9.40
2010,07,17,07,16,9.40
2010,07,17,07,17,9.40
2010,07,17,07,18,9.40
2010,07,17,07,19,9.40
2010,07,17,07,20,9.40
2010,07,17,07,21,9.40
2010,07,17,07,22,9.40
2010,07,17,07,23,9.40
2010,07,17,07,24,9.40
2010,07,17,07,25,9.40
2010,07,17,07,26,9.40
2010,07,17,07,27,9.40
2010,07,17,07,28,9.40
2010,07,17,07,29,9.50
2010,07,17,07,30,9.50
2010,07,17,07,31,9.50
2010,07,17,07,32,9.50
2010,07,17,07,33,9.50
2010,07,17,07,34,9.50
2010,07,17,07,35,9.60
2010,07,17,07,36,9.60
2010,07,17,07,37,9.60
2010,07,17,07,38,9.70
2010,07,17,07,39,9.70
2010,07,17,07,40,9.70
2010,07,17,07,41,9.70
2010,07,17,07,42,9.70
2010,07,17,07,43,9.70
2010,07,17,07,44,9.70
2010,07,17,07,45,9.70
2010,07,17,07,46,9.80
2010,07,17,07,47,9.90
2010,07,17,07,48,9.90
2010,07,17,07,49,9.90
2010,07,17,07,50,9.90
2010,07,17,07,51,9.90
2010,07,17,07,52,9.90
2010,07,17,07,53,9.90
2010,07,17,07,54,9.90
2010,07,17,07,55,10.00
2010,07,17,07,56,10.10
2010,07,17,07,57,10.10
2010,07,17,07,58,10.10
2010,07,17,07,59,10.10
2010,07,17,08,00,10.10
2010,07,17,08,01,10.10
2010,07,17,08,02,10.20
2010,07,17,08,03,10.20
2010,07,17,08,04,10.20
2010,07,17,08,05,10.30
2010,07,17,08,06,10.30
2010,07,17,08,07,10.20
2010,07,17,08,08,10.10
2010,07,17,08,09,10.10
2010,07,17,08,10,10.10
2010,07,17,08,11,10.10
2010,07,17,08,12,10.00
2010,07,17,08,13,9.90
2010,07,17,08,14,10.10
2010,07,17,08,15,10.10
2010,07,17,08,16,10.10
2010,07,17,08,17,10.10
2010,07,17,08,18,10.10
2010,07,17,08,19,10.10
2010,07,17,08,20,10.10
2010,07,17,08,21,10.10
2010,07,17,08,22,10.10
2010,07,17,08,23,10.10
2010,07,17,08,24,10.20
2010,07,17,08,25,10.20
2010,07,17,08,26,10.20
2010,07,17,08,27,10.20
2010,07,17,08,28,10.20
2010,07,17,08,29,10.30
2010,07,17,08,30,10.30
2010,07,17,08,31,10.30
2010,07,17,08,32,10.30
2010,07,17,08,33,10.20
2010,07,17,08,34,10.20
2010,07,17,08,35,10.20
2010,07,17,08,36,10.20
2010,07,17,08,37,10.20
2010,07,17,08,38,10.20
2010,07,17,08,39,10.20
2010,07,17,08,40,10.30
2010,07,17,08,41,10.30
2010,07,17,08,42,10.30
2010,07,17,08,43,10.40
2010,07,17,08,44,10.40
2010,07,17,08,45,10.40
2010,07,17,08,46,10.50
2010,07,17,08,47,10.60
2010,07,17,08,48,10.60
2010,07,17,08,49,10.40
2010,07,17,08,50,10.40
2010,07,17,08,51,10.40
2010,07,17,08,52,10.50
2010,07,17,08,53,10.60
2010,07,17,08,54,10.40
2010,07,17,08,55,10.40
2010,07,17,08,56,10.40
2010,07,17,08,57,10.50
2010,07,17,08,58,10.60
2010,07,17,08,59,10.60
2010,07,17,09,00,10.60
2010,07,17,09,01,10.60
2010,07,17,09,02,10.60
2010,07,17,09,03,10.60
2010,07,17,09,04,10.60
2010,07,17,09,05,10.50
2010,07,17,09,06,10.40
2010,07,17,09,07,10.40
2010,07,17,09,08,10.40
2010,07,17,09,09,10.40
2010,07,17,09,10,10.40
2010,07,17,09,11,10.40
2010,07,17,09,12,10.40
2010,07,17,09,13,10.40
2010,07,17,09,14,10.40
2010,07,17,09,15,10.40
2010,07,17,09,16,10.40
2010,07,17,09,17,10.40
2010,07,17,09,18,10.40
2010,07,17,09,19,10.40
2010,07,17,09,20,10.40
2010,07,17,09,21,10.40
2010,07,17,09,22,10.40
2010,07,17,09,23,10.50
2010,07,17,09,24,10.60
2010,07,17,09,25,10.60
2010,07,17,09,26,10.60
2010,07,17,09,27,10.60
2010,07,17,09,28,10.60
2010,07,17,09,29,10.60
2010,07,17,09,30,10.70
2010,07,17,09,31,10.70
2010,07,17,09,32,10.70
2010,07,17,09,33,10.70
2010,07,17,09,34,10.70
2010,07,17,09,35,10.80
2010,07,17,09,36,10.80
2010,07,17,09,37,10.80
2010,07,17,09,38,10.80
2010,07,17,09,39,10.80
2010,07,17,09,40,10.80
2010,07,17,09,41,10.80
2010,07,17,09,42,10.80
2010,07,17,09,43,10.80
2010,07,17,09,44,10.80
2010,07,17,09,45,10.90
2010,07,17,09,46,10.90
2010,07,17,09,47,10.90
2010,07,17,09,48,11.10
2010,07,17,09,49,11.10
2010,07,17,09,50,11.10
2010,07,17,09,51,11.10
2010,07,17,09,52,11.10
2010,07,17,09,53,11.10
2010,07,17,09,54,11.20
2010,07,17,09,55,11.30
2010,07,17,09,56,11.30
2010,07,17,09,57,11.30
2010,07,17,09,58,11.40
2010,07,17,09,59,11.40
2010,07,17,10,00,11.40
2010,07,17,10,01,11.40
2010,07,17,10,02,11.40
2010,07,17,10,03,11.30
2010,07,17,10,04,11.40
2010,07,17,10,05,11.40
2010,07,17,10,06,11.40
2010,07,17,10,07,11.40
2010,07,17,10,08,11.30
2010,07,17,10,09,11.30
2010,07,17,10,10,11.30
2010,07,17,10,11,11.30
2010,07,17,10,12,11.40
2010,07,17,10,13,11.40
2010,07,17,10,14,11.40
2010,07,17,10,15,11.40
2010,07,17,10,16,11.60
2010,07,17,10,17,11.60
2010,07,17,10,18,11.60
2010,07,17,10,19,11.60
2010,07,17,10,20,11.60
2010,07,17,10,21,11.60
2010,07,17,10,22,11.60
2010,07,17,10,23,11.60
2010,07,17,10,24,11.60
2010,07,17,10,25,11.50
2010,07,17,10,26,11.40
2010,07,17,10,27,11.40
2010,07,17,10,28,11.40
2010,07,17,10,29,11.40
2010,07,17,10,30,11.40
2010,07,17,10,31,11.40
2010,07,17,10,32,11.40
2010,07,17,10,33,11.30
2010,07,17,10,34,11.30
2010,07,17,10,35,11.40
2010,07,17,10,36,11.60
2010,07,17,10,37,11.60
2010,07,17,10,38,11.60
2010,07,17,10,39,11.60
2010,07,17,10,40,11.60
2010,07,17,10,41,11.60
2010,07,17,10,42,11.60
2010,07,17,10,43,11.60
2010,07,17,10,44,11.60
2010,07,17,10,45,11.70
2010,07,17,10,46,11.60
2010,07,17,10,47,11.70
2010,07,17,10,48,11.80
2010,07,17,10,49,11.80
2010,07,17,10,50,11.70
2010,07,17,10,51,11.70
2010,07,17,10,52,11.70
2010,07,17,10,53,11.80
2010,07,17,10,54,11.90
2010,07,17,10,55,11.90
2010,07,17,10,56,11.80
2010,07,17,10,57,11.90
2010,07,17,10,58,12.00
2010,07,17,10,59,12.00
2010,07,17,11,00,12.00
2010,07,17,11,01,11.90
2010,07,17,11,02,12.00
2010,07,17,11,03,12.10
2010,07,17,11,04,12.10
2010,07,17,11,05,12.10
2010,07,17,11,06,12.10
2010,07,17,11,07,12.10
2010,07,17,11,08,12.20
2010,07,17,11,09,12.20
2010,07,17,11,10,12.20
2010,07,17,11,11,12.20
2010,07,17,11,12,12.30
2010,07,17,11,13,12.30
2010,07,17,11,14,12.30
2010,07,17,11,15,12.30
2010,07,17,11,16,12.20
2010,07,17,11,17,12.20
2010,07,17,11,18,12.30
2010,07,17,11,19,12.30
2010,07,17,11,20,12.30
2010,07,17,11,21,12.40
2010,07,17,11,22,12.40
2010,07,17,11,23,12.40
2010,07,17,11,24,12.40
2010,07,17,11,25,12.40
2010,07,17,11,26,12.40
2010,07,17,11,27,12.40
2010,07,17,11,28,12.40
2010,07,17,11,29,12.40
2010,07,17,11,30,12.40
2010,07,17,11,31,12.40
2010,07,17,11,32,12.50
2010,07,17,11,33,12.60
2010,07,17,11,34,12.70
2010,07,17,11,35,12.70
2010,07,17,11,36,12.80
2010,07,17,11,37,12.80
2010,07,17,11,38,12.80
2010,07,17,11,39,12.80
2010,07,17,11,40,12.80
2010,07,17,11,41,12.90
2010,07,17,11,42,12.90
2010,07,17,11,43,13.00
2010,07,17,11,44,13.10
2010,07,17,11,45,13.20
2010,07,17,11,46,13.30
2010,07,17,11,47,13.30
2010,07,17,11,48,13.40
2010,07,17,11,49,13.50
2010,07,17,11,50,13.50
2010,07,17,11,51,13.50
2010,07,17,11,52,13.50
2010,07,17,11,53,13.50
2010,07,17,11,54,13.60
2010,07,17,11,55,13.70
2010,07,17,11,56,13.70
2010,07,17,11,57,13.70
2010,07,17,11,58,13.70
2010,07,17,11,59,13.70
2010,07,17,12,00,13.80
2010,07,17,12,01,13.80
2010,07,17,12,02,13.70
2010,07,17,12,03,13.70
2010,07,17,12,04,13.70
2010,07,17,12,05,13.90
2010,07,17,12,06,14.00
2010,07,17,12,07,14.00
2010,07,17,12,08,13.90
2010,07,17,12,09,13.80
2010,07,17,12,10,13.70
2010,07,17,12,11,13.70
2010,07,17,12,12,13.70
2010,07,17,12,13,13.60
2010,07,17,12,14,13.60
2010,07,17,12,15,13.50
2010,07,17,12,16,13.50
2010,07,17,12,17,13.50
2010,07,17,12,18,13.40
2010,07,17,12,19,13.20
2010,07,17,12,20,13.10
2010,07,17,12,21,13.00
2010,07,17,12,22,13.00
2010,07,17,12,23,13.10
2010,07,17,12,24,13.10
2010,07,17,12,25,13.10
2010,07,17,12,26,13.10
2010,07,17,12,27,13.00
2010,07,17,12,28,13.10
2010,07,17,12,29,13.00
2010,07,17,12,30,12.90
2010,07,17,12,31,12.80
2010,07,17,12,32,12.80
2010,07,17,12,33,12.70
2010,07,17,12,34,12.70
2010,07,17,12,35,12.70
2010,07,17,12,36,12.70
2010,07,17,12,37,12.70
2010,07,17,12,38,12.60
2010,07,17,12,39,12.60
2010,07,17,12,40,12.60
2010,07,17,12,41,12.60
2010,07,17,12,42,12.60
2010,07,17,12,43,12.60
2010,07,17,12,44,12.60
2010,07,17,12,45,12.50
2010,07,17,12,46,12.50
2010,07,17,12,47,12.40
2010,07,17,12,48,12.40
2010,07,17,12,49,12.30
2010,07,17,12,50,12.30
2010,07,17,12,51,12.30
2010,07,17,12,52,12.30
2010,07,17,12,53,12.40
2010,07,17,12,54,12.40
2010,07,17,12,55,12.50
2010,07,17,12,56,12.60
2010,07,17,12,57,12.70
2010,07,17,12,58,12.70
2010,07,17,12,59,12.80
2010,07,17,13,00,12.80
2010,07,17,13,01,12.90
2010,07,17,13,02,13.00
2010,07,17,13,03,13.10
2010,07,17,13,04,13.20
2010,07,17,13,05,13.20
2010,07,17,13,06,13.30
2010,07,17,13,07,13.30
2010,07,17,13,08,13.30
2010,07,17,13,09,13.30
2010,07,17,13,10,13.30
2010,07,17,13,11,13.30
2010,07,17,13,12,13.30
2010,07,17,13,13,13.50
2010,07,17,13,14,13.50
2010,07,17,13,15,13.60
2010,07,17,13,16,13.60
2010,07,17,13,17,13.70
2010,07,17,13,18,13.80
2010,07,17,13,19,13.70
2010,07,17,13,20,13.70
2010,07,17,13,21,13.70
2010,07,17,13,22,13.80
2010,07,17,13,23,13.80
2010,07,17,13,24,13.80
2010,07,17,13,25,13.90
2010,07,17,13,26,14.00
2010,07,17,13,27,14.10
2010,07,17,13,28,14.10
2010,07,17,13,29,14.10
2010,07,17,13,30,14.20
2010,07,17,13,31,14.20
2010,07,17,13,32,14.40
2010,07,17,13,33,14.50
2010,07,17,13,34,14.50
2010,07,17,13,35,14.50
2010,07,17,13,36,14.50
2010,07,17,13,37,14.40
2010,07,17,13,38,14.40
2010,07,17,13,39,14.40
2010,07,17,13,40,14.40
2010,07,17,13,41,14.50
2010,07,17,13,42,14.50
2010,07,17,13,43,14.60
2010,07,17,13,44,14.50
2010,07,17,13,45,14.60
2010,07,17,13,46,14.60
2010,07,17,13,47,14.50
2010,07,17,13,48,14.30
2010,07,17,13,49,14.00
2010,07,17,13,50,13.80
2010,07,17,13,51,13.70
2010,07,17,13,52,13.50
2010,07,17,13,53,13.40
2010,07,17,13,54,13.30
2010,07,17,13,55,13.30
2010,07,17,13,56,13.30
2010,07,17,13,57,13.20
2010,07,17,13,58,13.00
2010,07,17,13,59,13.00
2010,07,17,14,00,12.90
2010,07,17,14,01,12.90
2010,07,17,14,02,12.80
2010,07,17,14,03,12.90
2010,07,17,14,04,13.00
2010,07,17,14,05,13.10
2010,07,17,14,06,13.20
2010,07,17,14,07,13.40
2010,07,17,14,08,13.50
2010,07,17,14,09,13.60
2010,07,17,14,10,13.70
2010,07,17,14,11,13.90
2010,07,17,14,12,13.90
2010,07,17,14,13,13.90
2010,07,17,14,14,14.00
2010,07,17,14,15,14.00
2010,07,17,14,16,14.10
2010,07,17,14,17,14.30
2010,07,17,14,18,14.40
2010,07,17,14,19,14.50
2010,07,17,14,20,14.60
2010,07,17,14,21,14.80
2010,07,17,14,22,14.90
2010,07,17,14,23,14.90
2010,07,17,14,24,14.90
2010,07,17,14,25,14.80
2010,07,17,14,26,14.80
2010,07,17,14,27,14.80
2010,07,17,14,28,14.80
2010,07,17,14,29,14.80
2010,07,17,14,30,14.90
2010,07,17,14,31,15.00
2010,07,17,14,32,15.10
2010,07,17,14,33,15.30
2010,07,17,14,34,15.30
2010,07,17,14,35,15.40
2010,07,17,14,36,15.50
2010,07,17,14,37,15.60
2010,07,17,14,38,15.60
2010,07,17,14,39,15.60
2010,07,17,14,40,15.40
2010,07,17,14,41,15.30
2010,07,17,14,42,15.20
2010,07,17,14,43,15.20
2010,07,17,14,44,15.20
2010,07,17,14,45,15.20
2010,07,17,14,46,15.30
2010,07,17,14,47,15.40
2010,07,17,14,48,15.50
2010,07,17,14,49,15.70
2010,07,17,14,50,15.80
2010,07,17,14,51,15.80
2010,07,17,14,52,15.80
2010,07,17,14,53,15.80
2010,07,17,14,54,15.90
2010,07,17,14,55,15.90
2010,07,17,14,56,16.00
2010,07,17,14,57,16.10
2010,07,17,14,58,16.20
2010,07,17,14,59,16.20
2010,07,17,15,00,16.30
2010,07,17,15,01,16.30
2010,07,17,15,02,16.20
2010,07,17,15,03,16.10
2010,07,17,15,04,16.20
2010,07,17,15,05,16.10
2010,07,17,15,06,16.10
2010,07,17,15,07,16.10
2010,07,17,15,08,16.10
2010,07,17,15,09,16.10
2010,07,17,15,10,16.20
2010,07,17,15,11,16.20
2010,07,17,15,12,16.30
2010,07,17,15,13,16.30
2010,07,17,15,14,16.30
2010,07,17,15,15,16.30
2010,07,17,15,16,16.40
2010,07,17,15,17,16.40
2010,07,17,15,18,16.40
2010,07,17,15,19,16.40
2010,07,17,15,20,16.60
2010,07,17,15,21,16.70
2010,07,17,15,22,16.70
2010,07,17,15,23,16.80
2010,07,17,15,24,16.80
2010,07,17,15,25,16.80
2010,07,17,15,26,16.80
2010,07,17,15,27,16.80
2010,07,17,15,28,16.70
2010,07,17,15,29,16.70
2010,07,17,15,30,16.70
2010,07,17,15,31,16.70
2010,07,17,15,32,16.70
2010,07,17,15,33,16.70
2010,07,17,15,34,16.70
2010,07,17,15,35,16.60
2010,07,17,15,36,16.50
2010,07,17,15,37,16.40
2010,07,17,15,38,16.40
2010,07,17,15,39,16.30
2010,07,17,15,40,16.40
2010,07,17,15,41,16.40
2010,07,17,15,42,16.30
2010,07,17,15,43,16.20
2010,07,17,15,44,16.10
2010,07,17,15,45,15.90
2010,07,17,15,46,15.80
2010,07,17,15,47,15.80
2010,07,17,15,48,15.80
2010,07,17,15,49,15.90
2010,07,17,15,50,16.00
2010,07,17,15,51,16.10
2010,07,17,15,52,16.00
2010,07,17,15,53,16.10
2010,07,17,15,54,16.00
2010,07,17,15,55,15.90
2010,07,17,15,56,16.00
2010,07,17,15,57,16.00
2010,07,17,15,58,15.90
2010,07,17,15,59,15.80
2010,07,17,16,00,15.80
2010,07,17,16,01,15.90
2010,07,17,16,02,16.00
2010,07,17,16,03,16.10
2010,07,17,16,04,16.00
2010,07,17,16,05,15.90
2010,07,17,16,06,15.80
2010,07,17,16,07,15.80
2010,07,17,16,08,15.80
2010,07,17,16,09,15.80
2010,07,17,16,10,15.90
2010,07,17,16,11,16.00
2010,07,17,16,12,16.10
2010,07,17,16,13,16.10
2010,07,17,16,14,16.10
2010,07,17,16,15,16.10
2010,07,17,16,16,16.20
2010,07,17,16,17,16.20
2010,07,17,16,18,16.20
2010,07,17,16,19,16.20
2010,07,17,16,20,16.30
2010,07,17,16,21,16.30
2010,07,17,16,22,16.40
2010,07,17,16,23,16.40
2010,07,17,16,24,16.30
2010,07,17,16,25,16.30
2010,07,17,16,26,16.40
2010,07,17,16,27,16.50
2010,07,17,16,28,16.60
2010,07,17,16,29,16.70
2010,07,17,16,30,16.70
2010,07,17,16,31,16.70
2010,07,17,16,32,16.70
2010,07,17,16,33,16.70
2010,07,17,16,34,16.70
2010,07,17,16,35,16.60
2010,07,17,16,36,16.60
2010,07,17,16,37,16.70
2010,07,17,16,38,16.70
2010,07,17,16,39,16.70
2010,07,17,16,40,16.70
2010,07,17,16,41,16.70
2010,07,17,16,42,16.70
2010,07,17,16,43,16.60
2010,07,17,16,44,16.60
2010,07,17,16,45,16.60
2010,07,17,16,46,16.60
2010,07,17,16,47,16.70
2010,07,17,16,48,16.80
2010,07,17,16,49,16.80
2010,07,17,16,50,16.70
2010,07,17,16,51,16.70
2010,07,17,16,52,16.70
2010,07,17,16,53,16.80
2010,07,17,16,54,16.80
2010,07,17,16,55,16.80
2010,07,17,16,56,16.80
2010,07,17,16,57,16.70
2010,07,17,16,58,16.70
2010,07,17,16,59,16.80
2010,07,17,17,00,16.80
2010,07,17,17,01,16.80
2010,07,17,17,02,16.80
2010,07,17,17,03,16.80
2010,07,17,17,04,16.70
2010,07,17,17,05,16.70
2010,07,17,17,06,16.80
2010,07,17,17,07,16.80
2010,07,17,17,08,16.70
2010,07,17,17,09,16.50
2010,07,17,17,10,16.40
2010,07,17,17,11,16.40
2010,07,17,17,12,16.40
2010,07,17,17,13,16.30
2010,07,17,17,14,16.20
2010,07,17,17,15,16.10
2010,07,17,17,16,16.00
2010,07,17,17,17,15.90
2010,07,17,17,18,15.90
2010,07,17,17,19,15.80
2010,07,17,17,20,15.80
2010,07,17,17,21,15.80
2010,07,17,17,22,15.80
2010,07,17,17,23,15.80
2010,07,17,17,24,15.80
2010,07,17,17,25,15.80
2010,07,17,17,26,15.80
2010,07,17,17,27,16.00
2010,07,17,17,28,16.10
2010,07,17,17,29,16.20
2010,07,17,17,30,16.40
2010,07,17,17,31,16.40
2010,07,17,17,32,16.40
2010,07,17,17,33,16.50
2010,07,17,17,34,16.60
2010,07,17,17,35,16.60